Location: Coed Ely
(51.5661°N, 3.4150°W)
Time: 01:42:17
(UTC+00:00)

Cosmos 158 Rocket - Pass Details

Date: 28 January 2021
Orbit: 698 x 794 km, 74.0° (Epoch: 28 February)

Event Time Altitude Azimuth Distance (km) Brightness Sun altitude
Rises 17:27:52 0° 333° (NNW) 3,278 7.3 -5.3°
Reaches altitude 10° 17:30:15 10° 332° (NNW) 2,356 6.6 -5.6°
Maximum altitude 17:35:36 73° 249° (WSW) 833 4.4 -6.4°
Drops below altitude 10° 17:40:58 10° 166° (SSE) 2,358 6.6 -7.2°
Sets 17:43:22 0° 164° (SSE) 3,282 7.3 -7.5°
